Weather History for Zacatecas Airport, Mexico

Change the Weather History Date:

Tuesday, March 12, 2013

  Actual Average Record
Temperature  
Mean Temperature 50 °F -  
Max Temperature 69 °F 73 °F 80 °F (2003)
Min Temperature 32 °F 38 °F 32 °F (2013)
Degree Days  
Heating Degree Days 14    
Moisture  
Dew Point 17 °F    
Average Humidity 25    
Maximum Humidity 38    
Minimum Humidity 12    
Precipitation  
Precipitation 0.00 in - - ()
Sea Level Pressure  
Sea Level Pressure 30.24 in    
Wind  
Wind Speed 5 mph ()    
Max Wind Speed 15 mph    
Max Gust Speed -    
Visibility 10.0 miles    
Events      
Averages and records for this station are not official NWS values.
T = Trace of Precipitation, MM = Missing Value Source: Averaged Metar Reports

Daily Weather History Graph

Daily Weather History Graph

Search for Another Location

Airport:

Trip Planner

Search our weather history database for the weather conditions in past years. The results will help you decide how hot, cold, wet, or windy it might be!

Date:

Astronomy

Mar. 12, 2013 Rise Set
Actual Time 7:02 AM CST 6:58 PM CST
Civil Twilight 6:39 AM CST 7:21 PM CST
Nautical Twilight 6:13 AM CST 7:47 PM CST
Astronomical Twilight 5:47 AM CST 8:13 PM CST
Moon 7:20 AM CST (3/12) 8:01 PM CST (3/12)
Length of Visible Light 12h 41m
Length of Day
11h 56m
New Moon, 1% of the Moon is Illuminated
Mar 12
New Moon
Mar 19
First Quarter
Mar 27
Full
Apr 2
Last Quarter
Apr 10
New

Hourly Weather History & Observations

Time (CST) Temp. Windchill Dew Point Humidity Pressure Visibility Wind Dir Wind Speed Gust Speed Precip Events Conditions
12:45 AM 42.8 °F 38.0 °F 12.2 °F 29% 30.23 in 10.0 mi NE 8.1 mph - N/A   Scattered Clouds
2:47 AM 39.2 °F - 10.4 °F 31% 30.21 in 10.0 mi Calm Calm - N/A   Scattered Clouds
3:48 AM 35.6 °F - 8.6 °F 33% 30.21 in 10.0 mi Calm Calm - N/A   Scattered Clouds
4:42 AM 35.6 °F - 10.4 °F 35% 30.20 in 10.0 mi Calm Calm - N/A   Partly Cloudy
5:43 AM 33.8 °F - 8.6 °F 35% 30.21 in 10.0 mi Calm Calm - N/A   Partly Cloudy
6:48 AM 32.0 °F - 6.8 °F 35% 30.23 in 10.0 mi Calm Calm - N/A   Scattered Clouds
7:55 AM 33.8 °F 29.6 °F 10.4 °F 38% 30.26 in 10.0 mi SW 4.6 mph - N/A   Mostly Cloudy
8:53 AM 46.4 °F 43.5 °F 17.6 °F 32% 30.30 in 10.0 mi North 5.8 mph - N/A   Mostly Cloudy
9:43 AM 51.8 °F - 23.0 °F 33% 30.30 in 10.0 mi North 6.9 mph - N/A   Mostly Cloudy
10:44 AM 59.0 °F - 28.4 °F 31% 30.30 in 10.0 mi NNE 8.1 mph - N/A   Mostly Cloudy
11:40 AM 62.6 °F - 28.4 °F 27% 30.28 in 10.0 mi East 15.0 mph - N/A   Mostly Cloudy
12:42 PM 64.4 °F - 26.6 °F 24% 30.26 in 10.0 mi SE 12.7 mph - N/A   Mostly Cloudy
1:44 PM 66.2 °F - 21.2 °F 18% 30.22 in 10.0 mi SSW 11.5 mph - N/A   Mostly Cloudy
3:00 PM 69.8 °F - 21.2 °F 16% 30.19 in 10.0 mi Calm Calm - N/A   Mostly Cloudy
4:42 PM 69.8 °F - 14.0 °F 12% 30.17 in 10.0 mi South 5.8 mph - N/A   Mostly Cloudy
5:43 PM 68.0 °F - 17.6 °F 15% 30.18 in 10.0 mi Calm Calm - N/A   Overcast
6:43 PM 66.2 °F - 17.6 °F 15% 30.20 in 10.0 mi NE 5.8 mph - N/A   Overcast
7:44 PM 62.6 °F - 17.6 °F 18% 30.22 in 10.0 mi ENE 8.1 mph - N/A   Overcast
8:43 PM 60.8 °F - 17.6 °F 19% 30.26 in 10.0 mi East 6.9 mph - N/A   Overcast
9:53 PM 59.0 °F - 17.6 °F 20% 30.29 in 10.0 mi NE 12.7 mph - N/A   Overcast
10:48 PM 57.2 °F - 17.6 °F 21% 30.31 in 10.0 mi NE 9.2 mph - N/A   Overcast
11:40 PM 53.6 °F - 15.8 °F 22% 30.32 in 10.0 mi NE 8.1 mph - N/A   Overcast